Starlink 33694

operational
NORAD ID: 63407 Int'l Des: 2025-065 Owner: SPXS Country: US Constellation: starlink
LEOCIRCULAR

About Starlink 33694

Description loading...

Live Position

Loading 3D Globe...

Upcoming Passes

Altitude History

Altitude vs Time

uPlot chart will show altitude changes over time

Two-Line Element Set

1 63407U 25065J 25301.55277707 .00043042 00000-0 15633-2 0 9992
2 63407 43.0012 133.1082 0001822 258.2926 101.7722 15.27605810 32636
Epoch: Oct 28, 2025 • Age: 20 hours

Current Status

Altitude 488.6 km
Velocity 7.62 km/s
Sub-Earth Point -26.78°S, 167.16°E
Launch Date Mar 31, 2025
Age 0.5 years
Type internet

Technical Details

Classification Payload
Mass 575.00 kg
Dry Mass 530.00 kg
Total Mass 575.00 kg
Length 0.30 m
Diameter 4.10 m
Span 29.00 m
Shape Box + pan
Manufacturer SPXS
Bus Type Starlink V2MO
Phase Status In Orbit
Owner/State SPXS/US

Large Constellations

Loading constellations...